This demonstration page uses our WeatherBlox Daily Observations layout. Learn more.

Left ArrowRight Arrow

39.95238, -75.16362

Hourly Observations for August 13, 2022

Temp ( °F °C ) Dew Point ( °F °C ) Humidity (%) Winds ( mph kmh ) Pressure ( in mb ) Visibility ( mi km ) Precip ( " mm )
12:54 am 00:54 Mostly Clear 73 22.8 47 8.3 39 39 N 12 19 30.07 1018 10 16 0.00 0.00
1:54 am 01:54 Mostly Clear 71 21.7 46 7.8 41 41 N 10 17 30.06 1018 10 16 0.00 0.00
2:54 am 02:54 Mostly Clear 69 20.6 48 8.9 47 47 NNE 9 15 30.06 1018 10 16 0.00 0.00
3:54 am 03:54 Mostly Clear 68 20 48 8.9 49 49 NNE 9 15 30.08 1019 10 16 0.00 0.00
4:54 am 04:54 Mostly Clear 67 19.4 48 8.9 51 51 N 10 17 30.09 1019 10 16 0.00 0.00
5:54 am 05:54 Mostly Clear 66 18.9 49 9.4 54 54 N 12 19 30.10 1019 10 16 0.00 0.00
6:54 am 06:54 Mostly Sunny 66 18.9 50 10 56 56 N 9 15 30.12 1020 10 16 0.00 0.00
7:54 am 07:54 Sunny 69 20.6 51 10.6 53 53 N 6 9 30.12 1020 10 16 0.00 0.00
8:54 am 08:54 Sunny 72 22.2 51 10.6 48 48 N 9 15 30.13 1020 10 16 0.00 0.00
9:54 am 09:54 Sunny 75 23.9 52 11.1 45 45 NE 12 19 30.13 1020 10 16 0.00 0.00
10:54 am 10:54 Sunny 77 25 49 9.4 37 37 N 14 22 30.12 1020 10 16 0.00 0.00
11:54 am 11:54 Mostly Sunny 78 25.6 45 7.2 31 31 NW 8 13 30.12 1020 10 16 0.00 0.00
12:54 pm 12:54 Mostly Sunny 80 26.7 44 6.7 28 28 NW 13 20 30.10 1019 10 16 0.00 0.00
1:54 pm 13:54 Mostly Sunny 81 27.2 46 7.8 29 29 undefined N/A 30.09 1019 10 16 0.00 0.00
2:02 pm 14:02 Mostly Sunny 82 27.8 46 7.8 28 28 NNW 14 22 30.09 1019 10 16 0.00 0.00
2:54 pm 14:54 Mostly Sunny 83 28.3 47 8.3 28 28 VRB 5 7 30.07 1018 10 16 0.00 0.00
3:00 pm 15:00 Mostly Sunny 82 27.8 47 8.3 29 29 NNE 9 15 30.07 1018 10 16 0.00 0.00
3:54 pm 15:54 Mostly Sunny 84 28.9 47 8.3 27 27 VRB 7 11 30.05 1018 10 16 0.00 0.00
4:54 pm 16:54 Mostly Sunny 83 28.3 46 7.8 28 28 VRB 3 6 30.04 1017 10 16 0.00 0.00
5:54 pm 17:54 Partly Cloudy 83 28.3 45 7.2 26 26 Calm 30.04 1017 10 16 0.00 0.00
6:54 pm 18:54 Partly Cloudy 83 28.3 46 7.8 28 28 E 5 7 30.04 1017 10 16 0.00 0.00
7:54 pm 19:54 Partly Cloudy 80 26.7 49 9.4 34 34 Calm 30.05 1018 10 16 0.00 0.00
8:54 pm 20:54 Partly Cloudy 73 22.8 55 12.8 53 53 SE 10 17 30.07 1018 10 16 0.00 0.00
9:54 pm 21:54 Partly Cloudy 71 21.7 56 13.3 59 59 SSE 8 13 30.08 1019 10 16 0.00 0.00
10:54 pm 22:54 Mostly Cloudy 69 20.6 57 13.9 65 65 Calm 30.08 1019 10 16 0.00 0.00
11:54 pm 23:54 Mostly Cloudy 69 20.6 58 14.4 68 68 Calm 30.08 1019 10 16 0.00 0.00

Powered by AerisWeather